Saint Francisville, IL

11:07 AM CST on December 07, 2016 (GMT -0600)
Mount Carmel Municipal

Weather History for KAJG - September, 2012

Change the Weather History Date:

Tuesday, September 11, 2012

  Actual Average (KLWV) Record (KLWV)
Temperature  
Mean Temperature 66 °F 71 °F  
Max Temperature 82 °F 84 °F 96 °F (2013)
Min Temperature 51 °F 59 °F 46 °F (1993)
Degree Days  
Heating Degree Days 0 0  
Month to date heating degree days 0  
Since 1 July heating degree days 1  
Cooling Degree Days 2 7  
Month to date cooling degree days 89  
Year to date cooling degree days 1272  
Growing Degree Days 16 (Base 50)    
Moisture  
Dew Point 53 °F    
Average Humidity 66    
Maximum Humidity 100    
Minimum Humidity 30    
Precipitation  
Precipitation 0.00 in 0.12 in 0.64 in (1984)
Month to date precipitation 1.16  
Year to date precipitation 30.51  
Sea Level Pressure  
Sea Level Pressure 30.18 in    
Wind  
Wind Speed 2 mph (SSE)    
Max Wind Speed 10 mph    
Max Gust Speed -    
Visibility 9 miles    
Events Fog    
T = Trace of Precipitation, MM = Missing Value Source: NWS Daily Summary

Daily Weather History Graph

Daily Weather History Graph

Search for Another Location

Airport or City:

Trip Planner

Search our weather history database for the weather conditions in past years. The results will help you decide how hot, cold, wet, or windy it might be!

Date:

Astronomy

Sep. 11, 2012 Rise Set
Actual Time 6:29 AM CDT 7:04 PM CDT
Civil Twilight 6:02 AM CDT 7:31 PM CDT
Nautical Twilight 5:31 AM CDT 8:02 PM CDT
Astronomical Twilight 4:58 AM CDT 8:35 PM CDT
Moon 1:48 AM CDT (9/11) 4:12 PM CDT (9/11)
Length of Visible Light 13h 28m
Length of Day
12h 35m
Waning Crescent, 21% of the Moon is Illuminated
Sep 11
Waning Crescent
Sep 15
New
Sep 22
First Quarter
Sep 29
Full
Oct 8
Last Quarter

Hourly Weather History & Observations

Time (CDT) Temp. Dew Point Humidity Pressure Visibility Wind Dir Wind Speed Gust Speed Precip Events Conditions
12:15 AM 57.2 °F 53.6 °F 88% 30.16 in 10.0 mi Calm Calm - N/A   Clear
12:35 AM 55.4 °F 55.4 °F 100% 30.16 in 10.0 mi Calm Calm - N/A   Clear
12:55 AM 55.4 °F 53.6 °F 94% 30.16 in 10.0 mi Calm Calm - N/A   Clear
1:15 AM 55.4 °F 53.6 °F 94% 30.16 in 10.0 mi Calm Calm - N/A   Clear
1:35 AM 55.4 °F 53.6 °F 94% 30.15 in 10.0 mi Calm Calm - N/A   Clear
1:55 AM 55.4 °F 53.6 °F 94% 30.15 in 10.0 mi Calm Calm - N/A   Clear
2:15 AM 55.4 °F 53.6 °F 94% 30.15 in 10.0 mi Calm Calm - N/A   Clear
2:35 AM 55.4 °F 51.8 °F 88% 30.15 in 5.0 mi Calm Calm - N/A   Clear
2:55 AM 53.6 °F 53.6 °F 100% 30.15 in 10.0 mi Calm Calm - N/A   Clear
3:15 AM 55.4 °F 53.6 °F 94% 30.16 in 1.2 mi ENE 3.5 mph - N/A   Mist
3:35 AM 53.6 °F 53.6 °F 100% 30.16 in 7.0 mi Calm Calm - N/A   Clear
3:55 AM 53.6 °F 51.8 °F 94% 30.17 in 10.0 mi Calm Calm - N/A   Clear
4:15 AM 53.6 °F 51.8 °F 94% 30.17 in 10.0 mi Calm Calm - N/A   Clear
4:35 AM 53.6 °F 51.8 °F 94% 30.17 in 10.0 mi Calm Calm - N/A   Clear
4:55 AM 55.4 °F 53.6 °F 94% 30.17 in 1.2 mi Calm Calm - N/A   Mist
5:15 AM 53.6 °F 51.8 °F 94% 30.18 in 0.8 mi Calm Calm - N/A   Mist
5:35 AM 53.6 °F 51.8 °F 94% 30.19 in 7.0 mi Calm Calm - N/A   Clear
5:55 AM 53.6 °F 51.8 °F 94% 30.19 in 0.5 mi Calm Calm - N/A Fog Fog
6:15 AM 53.6 °F 51.8 °F 94% 30.20 in 0.8 mi Calm Calm - N/A   Mist
6:35 AM 51.8 °F 50.0 °F 94% 30.20 in 10.0 mi Calm Calm - N/A   Clear
6:55 AM 51.8 °F 51.8 °F 100% 30.21 in 1.0 mi Calm Calm - N/A   Mist
7:15 AM 53.6 °F 53.6 °F 100% 30.22 in 7.0 mi Calm Calm - N/A   Clear
7:35 AM 57.2 °F 55.4 °F 94% 30.22 in 10.0 mi Calm Calm - N/A   Clear
7:55 AM 60.8 °F 55.4 °F 82% 30.23 in 10.0 mi Calm Calm - N/A   Clear
8:15 AM 62.6 °F 57.2 °F 82% 30.23 in 10.0 mi Calm Calm - N/A   Clear
8:35 AM 64.4 °F 57.2 °F 77% 30.23 in 10.0 mi SE 3.5 mph - N/A   Clear
8:55 AM 66.2 °F 57.2 °F 73% 30.24 in 10.0 mi SE 4.6 mph - N/A   Clear
9:15 AM 69.8 °F 57.2 °F 64% 30.23 in 10.0 mi SE 4.6 mph - N/A   Clear
9:35 AM 71.6 °F 57.2 °F 60% 30.24 in 10.0 mi SSE 4.6 mph - N/A   Clear
9:55 AM 73.4 °F 55.4 °F 53% 30.24 in 10.0 mi South 5.8 mph - N/A   Clear
10:15 AM 75.2 °F 55.4 °F 50% 30.24 in 10.0 mi South 4.6 mph - N/A   Clear
10:35 AM 77.0 °F 51.8 °F 41% 30.24 in 10.0 mi South 8.1 mph - N/A   Clear
10:55 AM 77.0 °F 50.0 °F 39% 30.23 in 10.0 mi SSE 9.2 mph - N/A   Clear
11:15 AM 78.8 °F 50.0 °F 36% 30.23 in 10.0 mi SSE 8.1 mph - N/A   Clear
11:35 AM 78.8 °F 50.0 °F 36% 30.22 in 10.0 mi South 6.9 mph - N/A   Clear
11:55 AM 78.8 °F 50.0 °F 36% 30.22 in 10.0 mi South 9.2 mph - N/A   Clear
12:15 PM 80.6 °F 50.0 °F 34% 30.21 in 10.0 mi SSW 10.4 mph - N/A   Clear
12:35 PM 80.6 °F 48.2 °F 32% 30.21 in 10.0 mi South 8.1 mph - N/A   Clear
12:55 PM 80.6 °F 50.0 °F 34% 30.20 in 10.0 mi Calm Calm - N/A   Clear
1:15 PM 80.6 °F 50.0 °F 34% 30.19 in 10.0 mi South 9.2 mph - N/A   Clear
1:35 PM 80.6 °F 48.2 °F 32% 30.19 in 10.0 mi SSE 9.2 mph - N/A   Clear
1:55 PM 82.4 °F 50.0 °F 32% 30.18 in 10.0 mi SE 5.8 mph - N/A   Clear
2:15 PM 82.4 °F 48.2 °F 30% 30.17 in 10.0 mi South 6.9 mph - N/A   Clear
2:35 PM 82.4 °F 48.2 °F 30% 30.17 in 10.0 mi SE 6.9 mph - N/A   Clear
2:55 PM 82.4 °F 48.2 °F 30% 30.16 in 10.0 mi SSE 10.4 mph - N/A   Clear
3:15 PM 82.4 °F 48.2 °F 30% 30.16 in 10.0 mi SE 8.1 mph - N/A   Clear
3:35 PM 82.4 °F 50.0 °F 32% 30.15 in 10.0 mi South 4.6 mph - N/A   Clear
3:55 PM 82.4 °F 50.0 °F 32% 30.14 in 10.0 mi SSE 8.1 mph - N/A   Clear
4:15 PM 82.4 °F 50.0 °F 32% 30.14 in 10.0 mi South 5.8 mph - N/A   Clear
4:35 PM 82.4 °F 50.0 °F 32% 30.14 in 10.0 mi South 5.8 mph - N/A   Clear
4:55 PM 82.4 °F 50.0 °F 32% 30.14 in 10.0 mi SSW 5.8 mph - N/A   Clear
5:15 PM 82.4 °F 50.0 °F 32% 30.14 in 10.0 mi SSE 6.9 mph - N/A   Clear
5:35 PM 82.4 °F 50.0 °F 32% 30.14 in 10.0 mi South 10.4 mph - N/A   Clear
5:55 PM 80.6 °F 51.8 °F 37% 30.13 in 10.0 mi South 6.9 mph - N/A   Clear
6:15 PM 80.6 °F 51.8 °F 37% 30.13 in 10.0 mi South 6.9 mph - N/A   Clear
6:35 PM 78.8 °F 53.6 °F 42% 30.13 in 10.0 mi South 3.5 mph - N/A   Clear
6:55 PM 77.0 °F 55.4 °F 47% 30.14 in 10.0 mi Calm Calm - N/A   Clear
7:15 PM 73.4 °F 53.6 °F 50% 30.14 in 10.0 mi SSE 3.5 mph - N/A   Clear
7:35 PM 71.6 °F 55.4 °F 57% 30.14 in 10.0 mi SSE 4.6 mph - N/A   Clear
7:55 PM 69.8 °F 57.2 °F 64% 30.15 in 10.0 mi Calm Calm - N/A   Clear
8:15 PM 68.0 °F 57.2 °F 68% 30.15 in 10.0 mi East 3.5 mph - N/A   Clear
8:35 PM 68.0 °F 57.2 °F 68% 30.16 in 10.0 mi Calm Calm - N/A   Clear
8:55 PM 68.0 °F 57.2 °F 68% 30.16 in 10.0 mi Calm Calm - N/A   Clear
9:15 PM 64.4 °F 59.0 °F 83% 30.16 in 10.0 mi Calm Calm - N/A   Clear
9:35 PM 64.4 °F 59.0 °F 83% 30.16 in 10.0 mi Calm Calm - N/A   Clear
9:55 PM 62.6 °F 57.2 °F 82% 30.16 in 10.0 mi Calm Calm - N/A   Clear
10:15 PM 62.6 °F 57.2 °F 82% 30.17 in 10.0 mi Calm Calm - N/A   Clear
10:35 PM 62.6 °F 59.0 °F 88% 30.16 in 10.0 mi Calm Calm - N/A   Clear
10:55 PM 62.6 °F 59.0 °F 88% 30.17 in 10.0 mi Calm Calm - N/A   Clear
11:35 PM 62.6 °F 57.2 °F 82% 30.17 in 10.0 mi Calm Calm - N/A   Clear
11:55 PM 60.8 °F 55.4 °F 82% 30.16 in 10.0 mi Calm Calm - N/A   Clear